Weather History for Poughkeepsie, NY

Change the Weather History Date:

Sunday, November 21, 2010

  Actual Average Record
Temperature  
Mean Temperature 36 °F 40 °F  
Max Temperature 45 °F 50 °F 65 °F (1956)
Min Temperature 26 °F 30 °F 11 °F (1951)
Degree Days  
Heating Degree Days 29 25  
Month to date heating degree days 462 460  
Since 1 July heating degree days 916 1036  
Cooling Degree Days 0 0  
Month to date cooling degree days 0 0  
Year to date cooling degree days 911 672  
Moisture  
Dew Point 24 °F    
Average Humidity 64    
Maximum Humidity 85    
Minimum Humidity 37    
Precipitation  
Precipitation 0.00 in 0.12 in 0.80 in (1991)
Month to date precipitation 1.98 2.40  
Year to date precipitation 35.75 41.93  
Sea Level Pressure  
Sea Level Pressure 30.45 in    
Wind  
Wind Speed 2 mph (West)    
Max Wind Speed 10 mph    
Max Gust Speed 15 mph    
Visibility 10 miles    
Events      
T = Trace of Precipitation, MM = Missing Value Source: NWS Daily Summary

Daily Weather History Graph

Daily Weather History Graph

Search for Another Location

Airport:

Trip Planner

Search our weather history database for the weather conditions in past years. The results will help you decide how hot, cold, wet, or windy it might be!

Date:

Astronomy

Nov. 21, 2010 Rise Set
Actual Time 6:51 AM EST 4:30 PM EST
Civil Twilight 6:21 AM EST 5:01 PM EST
Nautical Twilight 5:47 AM EST 5:35 PM EST
Astronomical Twilight 5:14 AM EST 6:08 PM EST
Moon 4:17 PM EST (11/21) 6:51 AM EST (11/21)
Length of Visible Light 10h 39m
Length of Day
9h 39m
Full, 100% of the Moon is Illuminated
Nov 21
Full
Nov 21
Full
Nov 28
Last Quarter
Dec 5
New
Dec 13
First Quarter

Hourly Weather History & Observations

Time (EST) Temp. Windchill Dew Point Humidity Pressure Visibility Wind Dir Wind Speed Gust Speed Precip Events Conditions
12:53 AM 30.0 °F - 24.1 °F 79% 30.33 in 10.0 mi Calm Calm - N/A   Clear
1:53 AM 30.0 °F - 24.1 °F 79% 30.36 in 10.0 mi Calm Calm - N/A   Clear
2:53 AM 28.0 °F - 25.0 °F 88% 30.39 in 10.0 mi Calm Calm - N/A   Clear
3:53 AM 28.0 °F - 24.1 °F 85% 30.40 in 10.0 mi Calm Calm - N/A   Clear
4:53 AM 28.0 °F - 25.0 °F 88% 30.41 in 10.0 mi Calm Calm - N/A   Clear
5:53 AM 28.0 °F - 24.1 °F 85% 30.45 in 10.0 mi Calm Calm - N/A   Clear
6:53 AM 28.0 °F - 24.1 °F 85% 30.47 in 10.0 mi Calm Calm - N/A   Clear
7:53 AM 33.1 °F 27.7 °F 23.0 °F 66% 30.49 in 10.0 mi North 5.8 mph - N/A   Clear
8:53 AM 34.0 °F 28.8 °F 19.9 °F 56% 30.51 in 10.0 mi North 5.8 mph - N/A   Clear
9:53 AM 37.9 °F 32.7 °F 21.0 °F 51% 30.51 in 10.0 mi North 6.9 mph - N/A   Clear
10:53 AM 39.9 °F 36.7 °F 21.0 °F 47% 30.51 in 10.0 mi NW 4.6 mph - N/A   Clear
11:53 AM 41.0 °F 39.0 °F 21.0 °F 45% 30.50 in 10.0 mi WSW 3.5 mph - N/A   Scattered Clouds
12:53 PM 41.0 °F 39.0 °F 19.9 °F 43% 30.48 in 10.0 mi SSW 3.5 mph - N/A   Mostly Cloudy
1:53 PM 45.0 °F - 19.9 °F 37% 30.47 in 10.0 mi Calm Calm - N/A   Partly Cloudy
2:53 PM 45.0 °F - 21.0 °F 39% 30.46 in 10.0 mi Calm Calm - N/A   Clear
3:53 PM 43.0 °F - 21.9 °F 43% 30.46 in 10.0 mi Calm Calm - N/A   Clear
4:53 PM 39.0 °F - 24.1 °F 55% 30.45 in 10.0 mi Calm Calm - N/A   Scattered Clouds
5:53 PM 39.0 °F - 26.1 °F 60% 30.46 in 10.0 mi Calm Calm - N/A   Overcast
6:53 PM 42.1 °F 39.2 °F 24.1 °F 49% 30.45 in 10.0 mi SE 4.6 mph - N/A   Overcast
7:53 PM 42.1 °F 38.4 °F 28.0 °F 58% 30.44 in 10.0 mi SSE 5.8 mph - N/A   Mostly Cloudy
8:53 PM 41.0 °F 38.0 °F 28.9 °F 62% 30.45 in 10.0 mi South 4.6 mph - N/A   Partly Cloudy
9:53 PM 39.0 °F - 30.0 °F 70% 30.45 in 10.0 mi Calm Calm - N/A   Clear
10:53 PM 34.0 °F - 28.9 °F 82% 30.45 in 10.0 mi Calm Calm - N/A   Mostly Cloudy
11:53 PM 37.0 °F - 30.9 °F 79% 30.45 in 10.0 mi Calm Calm - N/A   Overcast